CZ-6A DEB, 54586

Orbit data source: Space-Track

CZ-6A DEB, 54586 is space debris in SSO originally from a launch on Fri, 11 Nov 2022 UTC launched from the Taiyaun Space Center, China (TSC). Debris objects in space refer to the collection of defunct objects orbiting the Earth. Examples of debris include non-operational satellites, rocket bodies, and fragments generated from explosions, collisions, or faulty payload assembly.

Loading next visibility...
Identifier
54586, 2022-151MN
Orbit
SSO
Country
Flag of CNCN / PRC
Related business
Manufacturer
SAST
Mission
Spacecraft
Bus & Motor
Unknown
Mass
Unknown
Launch date (UTC)
2022-11-11 (3 years ago)
Launch vehicle
Unknown
Launch site
Taiyaun Space Center, China (TSC)
Object type
Payload
Rocket body
Debris
Shape & HBR
Unknown shape, 0.1 m
Radar Cross Section
Small (<0.1 m²)

Expand to show TLE details & history
Last TLE update: 22 hours ago

TLE from 22 hours ago
0 CZ-6A DEB
1 54586U 22151MN  25349.78193584  .00001286  00000-0  55906-3 0  9992
2 54586  98.7683   5.4507 0063075 149.2052 211.2852 14.24774771159792
Epoch: 2025-12-15T18:45Z
TLE epoch observation values (Epoch: 2025-12-15T18:45:59.256Z)
Latitude
0.00002°
Longitude
-0.72177°
Altitude
850.996 km
Speed
7.407 km/s
True Right ascension
00h 21m 48s
True Declination
0° 00' 00"
Sunlit
Object was in daylight at epoch
Visualization orbit readout
Latitude
Unknown
Longitude
Unknown
Altitude
Unknown
Speed
Unknown
Apparent Right ascension
Unknown
Apparent Declination
Unknown
Sunlit
N/A
Visualization observer readout
Local Sidereal Time
15:43:03
Azimuth
Unknown
Elevation
Unknown
Doppler factor
Unknown
Orbital elements
Apogee altitude
851.721 km
Perigee altitude
761.088 km
Semi-major axis
7,184.542 km
Eccentricity
0.00631
Inclination
98.7683°
RAAN
5.4507°
Arg. of periapsis
149.2052°
True anomaly
210.91237°
Mean anomaly
211.2852°
Eccentric anomaly
211.09854°
Mean motion
3.56406 °/min
Orbital period
101.01 mins
BSTAR
0.00055906
Loading maneuver chart data...
Computing Atmospheric mass density...
Loading historical data...
Loading historical data...
Loading historical data...
Loading historical data...
Loading historical data...
Loading historical data...
Loading historical data...

Documentation

Showing up to 5 results
|